EHI
0 0 0 0 0 0 0 0 0 0 0 0 0 0 0 0 0 0 0 0 0 0 0 0 0 0 0 0 0 0 0 0 0 0 0 0 0 0 0 0 0 0 0 0
0 0 0 0 0 0 0 0 0 0 0 0 0 0 0 0 0 0 0 0 0 0 0 0 0 0 0 0 0 0 0 0 0 0 0 0 0 0 0 0 0 0 0 0
0 0 0 0 0 0 0 0 0 0 0 0 0 0 0 0 0 0 0 0 0 0 0 0 0 0 0 0 0 0 0 0 0 0 0 0 0 0 0 0 0 0 0 0
0 0 0 0 0 0 0 0 0 0 0 0 0 0 0 0 0 0 0 0 0 0 0 0 0 0 0 0 0 0 0 0 0 0 0 0 0 0 0 0 0 0 0 0
0 0 0 0 0 0 0 0 0 0 0 0 0 0 0 0 0 0 0 0 0 0 0 0 0 0 0 0 0 0 0 0 0 0 0 0 0 0 0 0 0 0 0 0
0 0 0 0 0 0 0 0 0 0 0 0 0 0 0 0 0 0 0 0 0 0 0 0 0 0 0 0 0 0 0 0 0 0 0 0 0 0 0 0 0 0 0 0
0 0 0 0 0 0 0 0 0 0 0 0 0 0 0 0 0 0 0 0 0 0 0 0 0 0 0 0 0 0 0 0 0 0 0 0 0 0 0 0 0 0 0 0
0 0 0 0 0 0 0 0 0 0 0 0 0 0 0 0 0 0 0 0 0 0 0 0 0 0 0 0 0 0 0 0 0 0 0 0 0 0 0 0 0 0 0 0
0 0 0 0 0 0 0 0 0 0 0 0 0 0 0 0 0 0 0 0 0 0 0 0 0 0 0 0 0 0 0 0 0 0 0 0 0 0 0 0 0 0 0 0
0 0 0 0 0 0 0 0 0 0 0 0 0 0 0 0 0 0 0 0 0 0 0 0 0 0 0 0 0 0 0 0 0 0 0 0 0 0 0 0 0 0 0 0
0 0 0 0 0 0 0 0 0 0 0 0 0 0 0 0 0 0 0 0 0 0 0 0 0 0 0 0 0 0 0 0 0 0 0 0 0 0 0 0 0 0 0 0
0 0 0 0 0 0 0 0 0 0 0 0 0 0 0 0 0 0 0 0 0 0 0 0 0 0 0 0 0 0 0 0 0 0 0 0 0 0 0 0 0 0 0 0
0 0 0 0 0 0 0 0 0 0 0 0 0 0 0 0 0 0 0 0 0 0 0 0 0 0 0 0 0 0 0 0 0 0 0 0 0 0 0 0 0 0 0 0
0 0 0 0 0 0 0 0 0 0 0 0 0 0 0 0 0 0 0 0 0 0 0 0 0 0 0 0 0 0 0 0 0 0 0 0 0 0 0 0 0 0 0 0
0 0 0 0 0 0 0 0 0 0 0 0 0 0 0 0 0 0 0 0 0 0 0 0 0 0 0 0 0 0 0 0 0 0 0 0 0 0 0 0 0 0 0 0
0 0 0 0 0 0 0 0 0 0 0 0 0 0 0 0 0 0 0 0 0 0 0 0 0 0 0 0 0 0 0 0 0 0 0 0 0 0 0 0 0 0 0 0
0 0 0 0 0 0 0 0 0 0 0 0 0 0 0 0 0 0 0 0 0 0 0 0 0 0 0 0 0 0 0 0 0 0 0 0 0 0 0 0 0 0 0 0
0 0 0 0 0 0 0 0 0 0 0 0 0 0 0 0 0 0 0 0 0 0 0 0 0 0 0 0 0 0 0 0 0 0 0 0 0 0 0 0 0 0 0 0
0 0 0 0 0 0 0 0 0 0 0 0 0 0 0 0 0 0 0 0 0 0 0 0 0 0 0 0 0 0 0 0 0 0 0 0 0 0 0 0 0 0 0 0
0 0 0 0 0 0 0 0 0 0 0 0 0 0 0 0 0 0 0 0 0 0 0 0 0 0 0 0 0 0 0 0 0 0 0 0 0 0 0 0 0 0 0 0
0 0 0 0 0 0 0 0 0 0 0 0 0 0 0 0 0 0 0 0 0 0 0 0 0 0 0 0 0 0 0 0 0 0 0 0 0 0 0 0 0 0 0 0
0 0 0 0 0 0 0 0 0 0 0 0 0 0 0 0 0 0 0 0 0 0 0 0 0 0 0 0 0 0 0 0 0 0 0 0 0 0 0 0 0 0 0 0
0 0 0 0 0 0 0 0 0 0 0 0 0 0 0 0 0 0 0 0 0 0 0 0 0 0 0 0 0 0 0 0 0 0 0 0 0 0 0 0 0 0 0 0
0 0 0 0 0 0 0 0 0 0 0 0 0 0 0 0 0 0 0 0 0 0 0 0 0 0 0 0 0 0 0 0 0 0 0 0 0 0 0 0 0 0 0 0
0 0 0 0 0 0 0 0 0 0 0 0 0 0 0 0 0 0 0 0 0 0 0 0 0 0 0 0 0 0 0 0 0 0 0 0 0 0 0 0 0 0 0 0
0 0 0 0 0 0 0 0 0 0 0 0 0 0 0 0 0 0 0 0 0 0 0 0 0 0 0 0 0 0 0 0 0 0 0 0 0 0 0 0 0 0 0 0
0 0 0 0 0 0 0 0 0 0 0 0 0 0 0 0 0 0 0 0 0 0 0 0 0 0 0 0 0 0 0 0 0 0 0 0 0 0 0 0 0 0 0 0
Wind_Speed
4 5 3 3 5 5 4 7 8 8 6 7 6 4 3 4 4 4 3 2 3 4 5 6 7 8 9 10 10 10 10 10 10 9 8 7 7 6 5 5 5 4 4 4
4 5 5 5 6 5 4 3 4 2 3 5 3 2 4 6 5 5 4 4 4 4 4 5 7 8 9 10 10 10 11 11 9 8 8 8 7 7 6 5 4 4 4 4
4 6 5 5 4 1 1 2 1 2 4 4 4 5 5 5 6 6 6 5 5 5 6 6 7 8 10 11 9 10 11 10 10 9 9 9 8 7 7 6 5 4 4 4
1 2 3 7 2 1 4 4 3 2 2 3 1 1 4 5 6 7 8 7 6 6 6 6 5 5 7 7 9 11 11 11 10 10 10 9 8 8 8 6 5 5 5 5
3 2 5 6 5 2 2 2 5 3 4 5 4 4 6 8 7 6 6 6 6 6 5 5 4 4 4 5 7 9 11 12 12 11 11 10 10 9 8 6 6 5 5 5
3 3 5 5 7 5 5 2 6 4 5 5 6 5 6 10 9 8 8 8 8 7 5 4 4 2 3 6 7 10 12 12 11 12 12 12 12 10 7 6 7 6 5 5
4 4 6 5 6 4 3 3 3 3 4 4 2 2 6 8 8 8 8 9 9 8 7 6 4 2 3 5 9 11 9 9 10 12 13 12 10 8 7 7 6 5 5 4
3 3 6 5 4 3 3 1 1 2 2 2 2 4 6 8 8 9 10 10 9 9 9 7 5 3 4 6 8 7 6 8 10 11 11 10 9 9 8 8 7 6 5 4
5 5 2 2 2 1 2 1 1 2 3 2 3 5 6 7 8 9 9 9 9 9 10 9 6 4 6 7 5 4 6 8 9 10 10 9 11 10 7 7 7 6 6 5
1 2 1 2 2 2 1 1 1 1 2 2 3 5 5 6 7 8 8 9 9 9 10 11 9 7 7 7 4 4 6 7 7 8 8 8 8 9 8 8 8 7 7 6
4 4 2 2 2 1 1 1 2 2 3 3 3 5 5 5 6 7 8 7 7 8 9 11 11 10 8 6 4 4 5 6 6 7 8 8 7 7 9 9 11 11 9 8
7 6 4 5 4 3 2 3 3 3 4 4 3 4 5 5 5 6 8 8 9 9 10 11 11 10 9 6 5 5 5 5 5 5 6 6 6 3 2 5 10 13 12 11
6 5 4 5 4 3 3 3 3 3 3 4 4 4 4 5 5 6 7 8 9 10 11 11 11 11 10 8 6 6 6 5 5 5 6 7 7 8 6 1 2 8 12 14
4 2 3 3 4 3 3 3 3 3 3 3 4 4 4 5 6 7 8 9 10 10 10 10 11 11 10 9 8 7 6 7 6 6 7 8 8 8 8 9 7 4 6 11
4 3 4 3 3 2 2 2 2 3 4 4 4 5 5 6 7 8 9 9 9 10 10 11 11 11 9 8 8 8 6 5 5 5 6 7 7 7 7 9 8 6 4 5
3 2 2 2 2 2 2 2 2 4 4 5 5 6 7 7 8 8 9 9 9 11 11 11 11 11 9 9 9 8 7 9 7 5 6 6 7 8 8 9 9 9 9 8
2 2 2 3 3 3 3 3 3 4 4 5 7 7 7 7 8 8 9 9 9 10 10 10 11 11 9 9 9 7 7 7 9 6 6 7 8 9 9 9 10 10 10 11
5 5 4 4 4 4 4 4 4 5 5 6 7 7 7 8 8 9 9 9 9 10 10 10 10 11 10 9 8 7 6 6 5 6 6 7 8 9 9 10 11 11 7 10
3 3 4 4 5 4 5 5 6 6 6 7 7 8 8 9 9 9 9 9 9 11 11 10 16 12 9 11 12 7 6 7 6 6 6 8 8 8 8 9 10 10 10 10
3 4 4 5 5 5 5 6 6 6 7 7 7 8 9 10 10 10 9 8 7 8 10 12 12 10 9 10 13 7 7 7 7 6 5 6 7 7 8 9 9 10 11 11
4 4 5 5 6 6 6 6 6 8 8 8 8 9 10 10 9 9 8 9 9 9 10 15 10 8 8 10 12 7 7 7 7 6 6 6 6 7 7 8 9 10 11 10
4 4 5 6 6 7 7 7 7 8 8 8 9 9 9 10 10 9 9 8 9 13 10 7 7 11 14 15 7 7 7 7 6 5 5 5 5 6 7 8 9 9 10 10
6 6 6 7 7 8 8 7 8 8 8 9 9 9 9 9 7 7 9 8 7 14 10 7 12 18 20 11 7 7 7 7 6 5 5 5 5 5 5 6 7 8 9 9
6 7 7 7 6 6 8 9 9 8 8 9 9 9 9 8 8 7 8 12 15 16 9 11 17 19 17 7 7 7 6 6 6 5 5 4 4 4 4 5 6 7 8 11
7 7 7 6 6 6 8 8 8 8 8 7 9 10 8 6 7 8 8 9 14 14 9 12 18 18 10 7 7 6 6 6 6 5 4 4 3 3 4 5 7 8 9 9
7 6 6 7 6 6 6 5 5 6 6 7 7 7 7 6 7 7 7 9 11 13 9 7 8 10 7 6 7 7 6 5 5 4 3 3 3 4 4 5 8 8 8 9
7 6 5 5 6 6 6 6 6 7 7 7 8 8 7 7 7 7 8 8 8 8 7 7 6 6 6 6 6 6 4 4 3 3 3 3 3 4 5 7 6 7 7 9
Wind_Direction
233 255 264 263 274 268 219 205 204 239 238 267 279 285 309 337 354 5 346 312 252 230 227 225 218 211 204 201 194 188 186 192 199 199 196 195 196 197 198 199 201 199 196 203
327 322 337 313 297 282 259 242 227 234 273 282 292 24 19 6 8 4 340 313 285 264 250 234 225 218 210 204 197 188 191 198 197 191 191 195 197 195 195 202 206 199 204 204
288 310 357 310 282 269 335 331 169 192 261 309 23 30 19 13 10 355 337 323 306 282 257 244 235 220 213 209 195 191 197 198 194 190 192 197 197 192 197 202 200 206 215 209
233 358 256 249 279 122 96 36 32 55 352 358 352 73 42 27 12 353 345 337 320 299 283 264 250 236 219 204 192 195 199 199 196 192 195 194 191 195 201 197 199 208 214 212
146 214 274 299 313 297 155 40 3 25 9 0 346 18 7 1 357 346 339 331 316 302 286 277 271 256 214 202 199 199 203 203 199 193 193 191 195 200 199 194 200 204 205 206
149 183 239 265 302 315 99 52 345 21 22 4 24 25 319 329 340 346 344 343 337 329 326 309 289 276 219 211 204 210 213 210 201 194 193 195 199 198 192 192 200 200 206 207
189 213 251 276 304 30 95 250 316 18 29 25 31 252 282 321 341 344 342 340 345 343 335 313 305 292 252 229 224 224 219 209 199 196 197 198 195 190 187 189 190 194 202 211
158 193 250 313 31 89 202 222 4 23 21 14 332 322 334 341 341 343 343 343 344 342 330 323 321 303 279 254 245 236 219 209 205 201 200 196 188 189 185 183 184 192 195 210
189 210 236 6 79 100 127 103 348 342 328 339 341 337 336 337 336 336 336 335 334 333 329 327 325 306 277 277 274 247 223 218 211 204 201 191 187 188 183 183 187 193 192 202
294 270 323 360 48 60 77 65 313 313 320 339 327 323 327 330 332 333 330 330 329 332 332 326 322 310 286 288 287 252 234 226 214 201 200 195 190 189 187 188 190 192 194 198
275 272 312 320 322 311 329 348 335 320 310 308 310 313 315 320 322 322 323 323 326 324 319 316 318 311 305 305 291 263 250 235 220 207 197 195 194 195 194 198 194 191 196 190
241 239 224 257 267 280 299 307 305 311 316 315 306 304 311 310 311 315 319 320 322 321 318 314 315 314 310 307 295 263 258 245 227 214 201 192 182 179 203 200 201 197 190 182
229 243 231 244 257 263 264 277 292 301 302 310 312 307 310 307 309 314 316 317 315 313 312 313 312 311 315 308 301 274 254 249 234 218 207 195 188 183 181 163 157 189 186 182
249 242 262 263 262 269 269 283 301 311 308 300 302 305 307 306 307 312 310 307 306 307 307 310 311 308 312 312 302 289 274 254 241 223 214 206 199 196 188 180 179 184 192 185
253 227 226 244 254 273 288 312 334 320 310 304 301 301 302 303 302 302 303 306 308 307 305 308 308 307 311 312 304 293 283 270 252 238 224 215 203 195 192 188 182 169 157 175
245 250 237 242 262 277 290 299 293 290 292 293 296 295 293 291 293 296 301 306 309 307 304 305 304 303 307 310 305 296 281 281 277 250 230 218 204 193 192 189 183 179 181 176
194 242 259 265 263 272 272 266 262 272 282 289 290 290 293 295 297 299 300 301 297 296 296 297 298 300 305 310 305 295 287 278 276 264 235 220 209 200 195 192 190 190 189 182
202 208 214 223 236 254 266 270 270 274 276 280 288 291 290 289 288 291 294 299 302 302 299 295 296 302 304 307 305 295 288 278 267 261 249 233 219 206 197 195 194 189 178 178
216 221 230 237 241 243 251 264 269 269 274 280 286 287 285 283 282 284 290 296 301 303 300 299 307 308 301 301 307 292 286 282 277 271 260 244 229 211 200 196 191 186 178 175
232 235 238 246 250 250 257 265 271 276 278 279 283 287 288 287 285 286 288 286 279 277 285 296 302 296 294 296 306 294 284 278 274 270 267 253 233 216 203 196 189 183 180 180
239 247 254 259 263 264 260 263 270 278 281 281 280 282 283 285 285 284 285 289 286 283 287 296 297 291 291 295 304 293 283 279 273 266 260 254 242 222 205 194 188 184 181 178
240 244 253 260 265 270 270 266 266 271 276 279 280 280 283 286 287 285 275 272 281 292 295 286 286 290 298 302 294 287 279 274 269 263 257 252 242 224 205 194 188 182 177 173
242 244 250 256 258 264 273 273 268 269 272 275 278 278 277 277 278 279 286 282 281 292 295 284 290 297 301 301 288 283 277 272 267 260 254 248 238 224 203 190 184 174 167 165
246 249 251 255 259 266 273 275 274 272 271 273 271 269 272 279 281 272 269 285 293 295 289 285 292 298 301 292 282 278 271 267 262 256 252 247 233 213 192 177 171 164 158 156
248 252 256 258 260 260 262 267 275 277 277 276 276 275 273 263 265 277 280 281 288 294 289 291 297 302 300 287 280 273 267 260 259 255 243 231 217 197 181 171 165 160 157 155
247 248 248 245 246 253 258 261 264 268 273 277 279 278 277 273 271 275 279 280 280 287 287 282 285 290 288 285 283 276 268 267 265 255 239 219 198 183 170 161 154 154 153 151
253 253 256 263 262 254 253 255 258 264 265 267 274 277 276 276 277 280 282 282 282 281 281 279 278 278 279 280 282 280 274 265 252 240 225 205 187 176 165 156 152 149 147 147